Terminal Aerodrome Forecast
Issued by NWS Atlanta, GA

Home | Current Version | Previous Version | Text Only | Print | Product List | Glossary On
Versions: 1 2 3 4 5 6 7 8 9 10 11 12 13 14 15 16 17 18 19 20 21 22 23
000
FTUS42 KFFC 200900 AAA
TAFCSG
TAF AMD
KCSG 200908Z 2009/2106 26003KT P6SM SCT250
     FM201000 27002KT 6SM BR SCT015
     FM201300 28004KT P6SM BKN020
     FM201500 29007KT P6SM SCT035
     FM201700 28009KT P6SM SCT045 PROB30 2018/2022 4SM -TSRA
      BKN030CB
     FM210200 27003KT P6SM SCT050=

USA.gov is the U.S. government's official web portal to all federal, state and local government web resources and services.